Regional Weather Roundup
Issued by NWS

Home | Current Version | Previous Version | Text Only | Print | Product List | Glossary On
Versions: 1 2 3 4 5 6 7 8 9 10 11 12 13 14 15 16 17 18 19 20 21 22 23 24 25 26 27 28 29 30 31 32 33 34 35 36 37 38 39 40 41 42 43 44 45 46 47 48 49 50
000
ASUS45 KSLC 251210
RWRUT

UTAH REGIONAL WEATHER ROUNDUP
NATIONAL WEATHER SERVICE SALT LAKE CITY UT
600 AM MDT FRI JUL 25 2014

UTZ001>011-023>025-251300-

NORTHERN UTAH

CITY           SKY/WX    TMP DP  RH WIND       PRES   REMARKS
HILL AFB       CLEAR     64  39  38 SE13      30.06R
LOGAN          CLEAR     51  43  74 NW3       30.09R
OGDEN          CLEAR     62  37  39 SW7       30.03R
PROVO AIRPORT  CLEAR     63  46  55 SE5       30.07R
SALT LAKE CITY PTCLDY    65  44  46 CALM      30.02S
VERNAL         MOCLDY    66  49  54 NW5       30.10R
WENDOVER       PTCLDY    68  34  28 NE7       30.05R
HEBER CITY     CLEAR     52  43  71 CALM      30.14S
WEST JORDAN    CLEAR     66  46  48 CALM      30.05S

$$

UTZ012>022-026-027-251300-

SOUTHERN UTAH

CITY           SKY/WX    TMP DP  RH WIND       PRES   REMARKS
BRYCE CANYON   CLOUDY    56  45  66 CALM      30.33R
CEDAR CITY     PTCLDY    72  47  40 S9        30.14R
MILFORD        PTCLDY    74  48  39 S13       30.07R
MOAB/CYNLANDS  CLEAR     76  49  38 E3        30.04R
PRICE          MOCLDY    73  48  41 E7        30.15R
ST GEORGE      SUNNY     82  48  30 E9        29.95S
KANAB          CLOUDY    72  48  43 CALM      30.16R

$$

REGIONAL REPORTS     COLORADO/ARIZONA

CITY           SKY/WX    TMP DP  RH WIND       PRES   REMARKS
CRAIG, CO      MOCLDY    52  52 100 SE7       30.21S
GRAND JUNCTION MOCLDY    68  55  63 SE10      30.12S
RIFLE          MOCLDY    62  49  62 CALM      30.21R
MONTROSE       PTCLDY    61  50  67 CALM      30.23R
CORTEZ         CLEAR     67  52  58 NE6       30.22S
PAGE, AZ       CLOUDY    83  52  34 NE5       30.07S
GRAND CANYON   MOCLDY    59  55  87 CALM      30.28R FOG
KINGMAN        PTCLDY    80  52  37 SE10      30.00R
FLAGSTAFF      CLEAR     50  47  89 CALM      30.33R

$$

REGIONAL REPORTS    NEVADA/IDAHO/WYOMING

CITY           SKY/WX    TMP DP  RH WIND       PRES   REMARKS
LAS VEGAS, NV  PTCLDY    90  48  23 S12       29.80R
ELY            PTCLDY    48  24  39 S7        30.16S
ELKO           PTCLDY    54  32  43 CALM      30.12R
POCATELLO, ID  CLEAR     52  26  36 SW9       30.14R
BURLEY         PTCLDY    48  35  60 W6        30.10S
EVANSTON, WY   PTCLDY    57  36  45 E3        30.22S
ROCK SPRINGS   PTCLDY    61  27  27 E5        30.18S

$$



USA.gov is the U.S. government's official web portal to all federal, state and local government web resources and services.